iso_date,epoch_date,Year,Hour,Min,DOY,POS_DOY,Lat,Lon,BP,Ts,Ta,has_bp,has_ts,has_ta,BuoyID,Buoy_Type,Buoy_Owner,Logistics,Hemisphere
2014-03-18T03:00:00Z,1395111600,2014,3,0,77.125,-999.0,74.4177,-136.8216,1021.0,-999.00,-28.87,yes,no,yes,300234061827060,AWS,BAS,unknown,North
2014-03-18T03:59:02Z,1395115142,2014,3,59,77.166,-999.0,74.4179,-136.8406,1022.0,-999.00,-28.94,yes,no,yes,300234061827060,AWS,BAS,unknown,North
2014-03-18T04:59:31Z,1395118771,2014,4,59,77.208,-999.0,74.4178,-136.8596,1022.0,-999.00,-29.22,yes,no,yes,300234061827060,AWS,BAS,unknown,North
2014-03-18T05:58:33Z,1395122314,2014,5,59,77.249,-999.0,74.4177,-136.8785,1023.0,-999.00,-29.5,yes,no,yes,300234061827060,AWS,BAS,unknown,North
2014-03-18T06:59:02Z,1395125942,2014,6,59,77.291,-999.0,74.4174,-136.8966,1023.0,-999.00,-29.78,yes,no,yes,300234061827060,AWS,BAS,unknown,North
2014-03-18T07:59:31Z,1395129571,2014,8,0,77.333,-999.0,74.4172,-136.9149,1023.0,-999.00,-29.97,yes,no,yes,300234061827060,AWS,BAS,unknown,North
2014-03-18T08:58:33Z,1395133114,2014,8,59,77.374,-999.0,74.417,-136.9322,1024.0,-999.00,-29.96,yes,no,yes,300234061827060,AWS,BAS,unknown,North
2014-03-18T09:59:02Z,1395136742,2014,9,59,77.416,-999.0,74.4168,-136.9499,1024.0,-999.00,-29.77,yes,no,yes,300234061827060,AWS,BAS,unknown,North
2014-03-18T10:59:31Z,1395140371,2014,10,59,77.458,-999.0,74.4164,-136.9675,1024.0,-999.00,-29.96,yes,no,yes,300234061827060,AWS,BAS,unknown,North
2014-03-18T11:58:33Z,1395143914,2014,11,59,77.499,-999.0,74.4161,-136.985,1024.0,-999.00,-29.67,yes,no,yes,300234061827060,AWS,BAS,unknown,North
2014-03-18T12:59:02Z,1395147542,2014,12,59,77.541,-999.0,74.4156,-137.0037,1024.0,-999.00,-29.76,yes,no,yes,300234061827060,AWS,BAS,unknown,North
2014-03-18T13:59:31Z,1395151171,2014,14,0,77.583,-999.0,74.4155,-137.0225,1025.0,-999.00,-29.95,yes,no,yes,300234061827060,AWS,BAS,unknown,North
2014-03-18T14:58:33Z,1395154714,2014,14,59,77.624,-999.0,74.4153,-137.04,1025.0,-999.00,-30.23,yes,no,yes,300234061827060,AWS,BAS,unknown,North
2014-03-18T15:59:02Z,1395158342,2014,15,59,77.666,-999.0,74.4153,-137.0573,1025.0,-999.00,-29.95,yes,no,yes,300234061827060,AWS,BAS,unknown,North
2014-03-18T16:59:31Z,1395161971,2014,16,59,77.708,-999.0,74.4156,-137.0747,1026.0,-999.00,-29.47,yes,no,yes,300234061827060,AWS,BAS,unknown,North
2014-03-18T17:58:33Z,1395165514,2014,17,59,77.749,-999.0,74.416,-137.0905,1026.0,-999.00,-29.09,yes,no,yes,300234061827060,AWS,BAS,unknown,North
2014-03-18T18:59:02Z,1395169142,2014,18,59,77.791,-999.0,74.4164,-137.1056,1026.0,-999.00,-28.34,yes,no,yes,300234061827060,AWS,BAS,unknown,North
2014-03-18T19:59:31Z,1395172771,2014,20,0,77.833,-999.0,74.4165,-137.1205,1027.0,-999.00,-27.77,yes,no,yes,300234061827060,AWS,BAS,unknown,North
2014-03-18T20:58:33Z,1395176314,2014,20,59,77.874,-999.0,74.4165,-137.1353,1027.0,-999.00,-26.82,yes,no,yes,300234061827060,AWS,BAS,unknown,North
2014-03-18T21:59:02Z,1395179942,2014,21,59,77.916,-999.0,74.4169,-137.1509,1027.0,-999.00,-26.45,yes,no,yes,300234061827060,AWS,BAS,unknown,North
2014-03-18T22:59:31Z,1395183571,2014,22,59,77.958,-999.0,74.417,-137.1656,1027.0,-999.00,-25.98,yes,no,yes,300234061827060,AWS,BAS,unknown,North
2014-03-18T23:58:33Z,1395187114,2014,23,59,77.999,-999.0,74.4175,-137.1796,1027.0,-999.00,-25.79,yes,no,yes,300234061827060,AWS,BAS,unknown,North
2014-03-19T00:59:02Z,1395190742,2014,0,59,78.041,-999.0,74.4176,-137.1925,1028.0,-999.00,-25.98,yes,no,yes,300234061827060,AWS,BAS,unknown,North
2014-03-19T01:59:31Z,1395194371,2014,2,0,78.083,-999.0,74.4184,-137.204,1028.0,-999.00,-26.46,yes,no,yes,300234061827060,AWS,BAS,unknown,North
2014-03-19T02:58:33Z,1395197914,2014,2,59,78.124,-999.0,74.4189,-137.2152,1029.0,-999.00,-26.84,yes,no,yes,300234061827060,AWS,BAS,unknown,North
2014-03-19T03:59:02Z,1395201542,2014,3,59,78.166,-999.0,74.4194,-137.2258,1029.0,-999.00,-27.68,yes,no,yes,300234061827060,AWS,BAS,unknown,North
2014-03-19T04:59:31Z,1395205171,2014,4,59,78.208,-999.0,74.4199,-137.2366,1030.0,-999.00,-28.54,yes,no,yes,300234061827060,AWS,BAS,unknown,North
2014-03-19T06:00:00Z,1395208800,2014,6,0,78.25,-999.0,74.4203,-137.2478,1030.0,-999.00,-28.82,yes,no,yes,300234061827060,AWS,BAS,unknown,North
2014-03-19T06:59:02Z,1395212342,2014,6,59,78.291,-999.0,74.4209,-137.2582,1030.0,-999.00,-29.1,yes,no,yes,300234061827060,AWS,BAS,unknown,North
2014-03-19T07:59:31Z,1395215971,2014,7,59,78.333,-999.0,74.4214,-137.2671,1031.0,-999.00,-29.39,yes,no,yes,300234061827060,AWS,BAS,unknown,North
2014-03-19T08:58:33Z,1395219514,2014,8,59,78.374,-999.0,74.4222,-137.2755,1032.0,-999.00,-29.28,yes,no,yes,300234061827060,AWS,BAS,unknown,North
2014-03-19T09:59:02Z,1395223142,2014,9,59,78.416,-999.0,74.4228,-137.2823,1032.0,-999.00,-29.66,yes,no,yes,300234061827060,AWS,BAS,unknown,North
2014-03-19T10:59:31Z,1395226771,2014,10,59,78.458,-999.0,74.4233,-137.2889,1032.0,-999.00,-30.33,yes,no,yes,300234061827060,AWS,BAS,unknown,North
2014-03-19T12:00:00Z,1395230400,2014,12,0,78.5,-999.0,74.4239,-137.2951,1033.0,-999.00,-30.71,yes,no,yes,300234061827060,AWS,BAS,unknown,North
2014-03-19T12:59:02Z,1395233942,2014,12,59,78.541,-999.0,74.4243,-137.3006,1034.0,-999.00,-30.61,yes,no,yes,300234061827060,AWS,BAS,unknown,North
2014-03-19T13:59:31Z,1395237571,2014,13,59,78.583,-999.0,74.4248,-137.3057,1034.0,-999.00,-30.61,yes,no,yes,300234061827060,AWS,BAS,unknown,North
2014-03-19T14:58:33Z,1395241114,2014,14,59,78.624,-999.0,74.4254,-137.3101,1035.0,-999.00,-30.89,yes,no,yes,300234061827060,AWS,BAS,unknown,North
2014-03-19T16:00:28Z,1395244829,2014,16,0,78.667,-999.0,74.4258,-137.3141,1035.0,-999.00,-30.89,yes,no,yes,300234061827060,AWS,BAS,unknown,North
2014-03-19T16:59:31Z,1395248371,2014,16,59,78.708,-999.0,74.4262,-137.3178,1035.0,-999.00,-30.13,yes,no,yes,300234061827060,AWS,BAS,unknown,North
2014-03-19T17:58:33Z,1395251914,2014,17,59,78.749,-999.0,74.4271,-137.3222,1036.0,-999.00,-29.28,yes,no,yes,300234061827060,AWS,BAS,unknown,North
2014-03-19T18:59:02Z,1395255542,2014,18,59,78.791,-999.0,74.4273,-137.3238,1037.0,-999.00,-28.42,yes,no,yes,300234061827060,AWS,BAS,unknown,North
2014-03-19T19:59:31Z,1395259171,2014,19,59,78.833,-999.0,74.4278,-137.3255,1037.0,-999.00,-27.58,yes,no,yes,300234061827060,AWS,BAS,unknown,North
2014-03-19T20:58:33Z,1395262714,2014,20,59,78.874,-999.0,74.4284,-137.3269,1038.0,-999.00,-26.92,yes,no,yes,300234061827060,AWS,BAS,unknown,North
2014-03-19T22:00:28Z,1395266429,2014,22,0,78.917,-999.0,74.4289,-137.3277,1038.0,-999.00,-26.36,yes,no,yes,300234061827060,AWS,BAS,unknown,North
2014-03-19T22:59:31Z,1395269971,2014,22,59,78.958,-999.0,74.4292,-137.3281,1038.0,-999.00,-25.98,yes,no,yes,300234061827060,AWS,BAS,unknown,North
2014-03-19T23:58:33Z,1395273514,2014,23,59,78.999,-999.0,74.4294,-137.3259,1038.0,-999.00,-26.08,yes,no,yes,300234061827060,AWS,BAS,unknown,North
2014-03-20T01:00:28Z,1395277229,2014,1,0,79.042,-999.0,74.4296,-137.3262,1039.0,-999.00,-26.27,yes,no,yes,300234061827060,AWS,BAS,unknown,North
2014-03-20T01:59:31Z,1395280771,2014,1,59,79.083,-999.0,74.4295,-137.3246,1039.0,-999.00,-27.51,yes,no,yes,300234061827060,AWS,BAS,unknown,North
2014-03-20T02:58:33Z,1395284314,2014,2,59,79.124,-999.0,74.4292,-137.323,1039.0,-999.00,-28.46,yes,no,yes,300234061827060,AWS,BAS,unknown,North
2014-03-20T04:00:28Z,1395288029,2014,4,0,79.167,-999.0,74.4289,-137.3206,1039.0,-999.00,-29.49,yes,no,yes,300234061827060,AWS,BAS,unknown,North
2014-03-20T04:59:31Z,1395291571,2014,4,59,79.208,-999.0,74.4287,-137.3173,1040.0,-999.00,-30.35,yes,no,yes,300234061827060,AWS,BAS,unknown,North
2014-03-20T06:00:00Z,1395295200,2014,6,0,79.25,-999.0,74.4286,-137.3137,1040.0,-999.00,-30.62,yes,no,yes,300234061827060,AWS,BAS,unknown,North
2014-03-20T06:59:02Z,1395298742,2014,6,59,79.291,-999.0,74.4287,-137.3093,1040.0,-999.00,-30.43,yes,no,yes,300234061827060,AWS,BAS,unknown,North
2014-03-20T07:59:31Z,1395302371,2014,7,59,79.333,-999.0,74.4288,-137.3035,1040.0,-999.00,-28.71,yes,no,yes,300234061827060,AWS,BAS,unknown,North
2014-03-20T08:58:33Z,1395305914,2014,8,59,79.374,-999.0,74.4286,-137.2959,1040.0,-999.00,-29.19,yes,no,yes,300234061827060,AWS,BAS,unknown,North
2014-03-20T09:59:02Z,1395309542,2014,9,59,79.416,-999.0,74.4286,-137.2885,1040.0,-999.00,-29.95,yes,no,yes,300234061827060,AWS,BAS,unknown,North
2014-03-20T10:59:31Z,1395313171,2014,10,59,79.458,-999.0,74.4286,-137.2797,1040.0,-999.00,-29.47,yes,no,yes,300234061827060,AWS,BAS,unknown,North
2014-03-20T12:00:00Z,1395316800,2014,12,0,79.5,-999.0,74.4285,-137.2708,1040.0,-999.00,-29.57,yes,no,yes,300234061827060,AWS,BAS,unknown,North
2014-03-20T12:59:02Z,1395320342,2014,12,59,79.541,-999.0,74.4286,-137.2622,1040.0,-999.00,-30.33,yes,no,yes,300234061827060,AWS,BAS,unknown,North
2014-03-20T13:59:31Z,1395323971,2014,13,59,79.583,-999.0,74.4287,-137.2532,1039.0,-999.00,-29.76,yes,no,yes,300234061827060,AWS,BAS,unknown,North
2014-03-20T14:58:33Z,1395327514,2014,14,59,79.624,-999.0,74.429,-137.2449,1039.0,-999.00,-29.94,yes,no,yes,300234061827060,AWS,BAS,unknown,North
2014-03-20T16:00:28Z,1395331229,2014,16,0,79.667,-999.0,74.4294,-137.235,1038.0,-999.00,-28.61,yes,no,yes,300234061827060,AWS,BAS,unknown,North
2014-03-20T16:59:31Z,1395334771,2014,16,59,79.708,-999.0,74.4301,-137.2235,1038.0,-999.00,-27.85,yes,no,yes,300234061827060,AWS,BAS,unknown,North
2014-03-20T17:58:33Z,1395338314,2014,17,59,79.749,-999.0,74.4312,-137.2098,1038.0,-999.00,-27.19,yes,no,yes,300234061827060,AWS,BAS,unknown,North
2014-03-20T18:59:02Z,1395341942,2014,18,59,79.791,-999.0,74.4325,-137.1934,1037.0,-999.00,-25.87,yes,no,yes,300234061827060,AWS,BAS,unknown,North
2014-03-20T19:59:31Z,1395345571,2014,19,59,79.833,-999.0,74.4336,-137.1736,1036.0,-999.00,-23.1,yes,no,yes,300234061827060,AWS,BAS,unknown,North
2014-03-20T20:58:33Z,1395349114,2014,20,59,79.874,-999.0,74.4347,-137.1501,1036.0,-999.00,-21.6,yes,no,yes,300234061827060,AWS,BAS,unknown,North
2014-03-20T22:00:28Z,1395352829,2014,22,0,79.917,-999.0,74.4352,-137.1259,1036.0,-999.00,-19.88,yes,no,yes,300234061827060,AWS,BAS,unknown,North
2014-03-20T22:59:31Z,1395356371,2014,22,59,79.958,-999.0,74.4353,-137.1015,1035.0,-999.00,-18.56,yes,no,yes,300234061827060,AWS,BAS,unknown,North
2014-03-20T23:58:33Z,1395359914,2014,23,59,79.999,-999.0,74.4352,-137.0775,1035.0,-999.00,-17.62,yes,no,yes,300234061827060,AWS,BAS,unknown,North
2014-03-21T01:00:28Z,1395363629,2014,1,0,80.042,-999.0,74.4342,-137.0552,1035.0,-999.00,-16.86,yes,no,yes,300234061827060,AWS,BAS,unknown,North
2014-03-21T01:59:31Z,1395367171,2014,1,59,80.083,-999.0,74.4325,-137.0362,1035.0,-999.00,-17.34,yes,no,yes,300234061827060,AWS,BAS,unknown,North
2014-03-21T02:58:33Z,1395370714,2014,2,59,80.124,-999.0,74.4304,-137.0215,1035.0,-999.00,-17.72,yes,no,yes,300234061827060,AWS,BAS,unknown,North
2014-03-21T03:59:02Z,1395374342,2014,3,59,80.166,-999.0,74.4283,-137.0091,1035.0,-999.00,-17.91,yes,no,yes,300234061827060,AWS,BAS,unknown,North
2014-03-21T04:59:31Z,1395377971,2014,4,59,80.208,-999.0,74.4265,-136.9992,1035.0,-999.00,-18.2,yes,no,yes,300234061827060,AWS,BAS,unknown,North
2014-03-21T05:58:33Z,1395381514,2014,5,59,80.249,-999.0,74.4251,-136.9914,1035.0,-999.00,-18.39,yes,no,yes,300234061827060,AWS,BAS,unknown,North
2014-03-21T06:59:02Z,1395385142,2014,6,59,80.291,-999.0,74.4244,-136.9842,1034.0,-999.00,-19.72,yes,no,yes,300234061827060,AWS,BAS,unknown,North
2014-03-21T07:59:31Z,1395388771,2014,8,0,80.333,-999.0,74.4242,-136.977,1034.0,-999.00,-20.48,yes,no,yes,300234061827060,AWS,BAS,unknown,North
2014-03-21T08:58:33Z,1395392314,2014,8,59,80.374,-999.0,74.4244,-136.9679,1034.0,-999.00,-19.14,yes,no,yes,300234061827060,AWS,BAS,unknown,North
2014-03-21T09:59:02Z,1395395942,2014,9,59,80.416,-999.0,74.4252,-136.9593,1033.0,-999.00,-18.87,yes,no,yes,300234061827060,AWS,BAS,unknown,North
2014-03-21T10:59:31Z,1395399571,2014,10,59,80.458,-999.0,74.4247,-136.942,1032.0,-999.00,-18.4,yes,no,yes,300234061827060,AWS,BAS,unknown,North
2014-03-21T11:58:33Z,1395403114,2014,11,59,80.499,-999.0,74.4249,-136.9259,1032.0,-999.00,-17.26,yes,no,yes,300234061827060,AWS,BAS,unknown,North
2014-03-21T12:59:02Z,1395406742,2014,12,59,80.541,-999.0,74.425,-136.9093,1031.0,-999.00,-16.4,yes,no,yes,300234061827060,AWS,BAS,unknown,North
2014-03-21T13:59:31Z,1395410371,2014,13,59,80.583,-999.0,74.4251,-136.8933,1030.0,-999.00,-15.83,yes,no,yes,300234061827060,AWS,BAS,unknown,North
2014-03-21T15:00:00Z,1395414000,2014,15,0,80.625,-999.0,74.4255,-136.8764,1029.0,-999.00,-15.26,yes,no,yes,300234061827060,AWS,BAS,unknown,North
2014-03-21T15:59:02Z,1395417542,2014,15,59,80.666,-999.0,74.4264,-136.8596,1028.0,-999.00,-14.99,yes,no,yes,300234061827060,AWS,BAS,unknown,North
2014-03-21T16:59:31Z,1395421171,2014,16,59,80.708,-999.0,74.4278,-136.8418,1027.0,-999.00,-14.62,yes,no,yes,300234061827060,AWS,BAS,unknown,North
2014-03-21T18:00:00Z,1395424800,2014,18,0,80.75,-999.0,74.4296,-136.8219,1025.0,-999.00,-14.33,yes,no,yes,300234061827060,AWS,BAS,unknown,North
2014-03-21T18:59:02Z,1395428342,2014,18,59,80.791,-999.0,74.4309,-136.7985,1025.0,-999.00,-14.14,yes,no,yes,300234061827060,AWS,BAS,unknown,North
2014-03-21T19:59:31Z,1395431971,2014,19,59,80.833,-999.0,74.431,-136.7718,1024.0,-999.00,-13.87,yes,no,yes,300234061827060,AWS,BAS,unknown,North
2014-03-21T20:58:33Z,1395435514,2014,20,59,80.874,-999.0,74.4289,-136.7448,1024.0,-999.00,-13.87,yes,no,yes,300234061827060,AWS,BAS,unknown,North
2014-03-21T21:59:02Z,1395439142,2014,21,59,80.916,-999.0,74.4252,-136.72,1024.0,-999.00,-13.49,yes,no,yes,300234061827060,AWS,BAS,unknown,North
2014-03-21T22:59:31Z,1395442771,2014,22,59,80.958,-999.0,74.4203,-136.6979,1024.0,-999.00,-12.83,yes,no,yes,300234061827060,AWS,BAS,unknown,North
2014-03-22T00:00:00Z,1395446400,2014,0,0,81.0,-999.0,74.4142,-136.6802,1024.0,-999.00,-12.07,yes,no,yes,300234061827060,AWS,BAS,unknown,North
2014-03-22T00:59:02Z,1395449942,2014,0,59,81.041,-999.0,74.4073,-136.6674,1025.0,-999.00,-11.88,yes,no,yes,300234061827060,AWS,BAS,unknown,North
2014-03-22T01:59:31Z,1395453571,2014,1,59,81.083,-999.0,74.4,-136.6593,1025.0,-999.00,-13.78,yes,no,yes,300234061827060,AWS,BAS,unknown,North
2014-03-22T02:58:33Z,1395457114,2014,2,59,81.124,-999.0,74.3924,-136.6555,1026.0,-999.00,-16.64,yes,no,yes,300234061827060,AWS,BAS,unknown,North
2014-03-22T04:00:28Z,1395460829,2014,4,0,81.167,-999.0,74.3843,-136.6593,1027.0,-999.00,-19.67,yes,no,yes,300234061827060,AWS,BAS,unknown,North
2014-03-22T04:59:31Z,1395464371,2014,4,59,81.208,-999.0,74.3778,-136.6684,1028.0,-999.00,-20.71,yes,no,yes,300234061827060,AWS,BAS,unknown,North
2014-03-22T05:58:33Z,1395467914,2014,5,59,81.249,-999.0,74.3736,-136.6818,1029.0,-999.00,-21.66,yes,no,yes,300234061827060,AWS,BAS,unknown,North
2014-03-22T06:59:02Z,1395471542,2014,6,59,81.291,-999.0,74.3699,-136.6921,1030.0,-999.00,-22.4,yes,no,yes,300234061827060,AWS,BAS,unknown,North
2014-03-22T07:59:31Z,1395475171,2014,7,59,81.333,-999.0,74.367,-136.6999,1030.0,-999.00,-23.45,yes,no,yes,300234061827060,AWS,BAS,unknown,North
2014-03-22T08:58:33Z,1395478714,2014,8,59,81.374,-999.0,74.3647,-136.7032,1031.0,-999.00,-24.5,yes,no,yes,300234061827060,AWS,BAS,unknown,North
2014-03-22T10:00:28Z,1395482429,2014,10,0,81.417,-999.0,74.3624,-136.7041,1032.0,-999.00,-25.07,yes,no,yes,300234061827060,AWS,BAS,unknown,North
2014-03-22T10:59:31Z,1395485971,2014,10,59,81.458,-999.0,74.3595,-136.7042,1033.0,-999.00,-25.91,yes,no,yes,300234061827060,AWS,BAS,unknown,North
2014-03-22T12:00:00Z,1395489600,2014,12,0,81.5,-999.0,74.3562,-136.7051,1033.0,-999.00,-26.1,yes,no,yes,300234061827060,AWS,BAS,unknown,North
2014-03-22T12:59:02Z,1395493142,2014,12,59,81.541,-999.0,74.3524,-136.7068,1034.0,-999.00,-25.24,yes,no,yes,300234061827060,AWS,BAS,unknown,North
2014-03-22T13:59:31Z,1395496771,2014,13,59,81.583,-999.0,74.3483,-136.7102,1034.0,-999.00,-24.86,yes,no,yes,300234061827060,AWS,BAS,unknown,North
2014-03-22T14:58:33Z,1395500314,2014,14,59,81.624,-999.0,74.3442,-136.7155,1035.0,-999.00,-25.05,yes,no,yes,300234061827060,AWS,BAS,unknown,North
2014-03-22T16:00:28Z,1395504029,2014,16,0,81.667,-999.0,74.3412,-136.7215,1036.0,-999.00,-25.62,yes,no,yes,300234061827060,AWS,BAS,unknown,North
2014-03-22T16:59:31Z,1395507571,2014,16,59,81.708,-999.0,74.3393,-136.7259,1036.0,-999.00,-25.43,yes,no,yes,300234061827060,AWS,BAS,unknown,North
2014-03-22T17:58:33Z,1395511114,2014,17,59,81.749,-999.0,74.3379,-136.73,1037.0,-999.00,-25.71,yes,no,yes,300234061827060,AWS,BAS,unknown,North
2014-03-22T18:59:02Z,1395514742,2014,18,59,81.791,-999.0,74.3368,-136.7329,1038.0,-999.00,-25.14,yes,no,yes,300234061827060,AWS,BAS,unknown,North
2014-03-22T19:59:31Z,1395518371,2014,20,0,81.833,-999.0,74.3357,-136.734,1038.0,-999.00,-24.49,yes,no,yes,300234061827060,AWS,BAS,unknown,North
2014-03-22T20:58:33Z,1395521914,2014,20,59,81.874,-999.0,74.3349,-136.733,1039.0,-999.00,-24.11,yes,no,yes,300234061827060,AWS,BAS,unknown,North
2014-03-22T21:59:02Z,1395525542,2014,21,59,81.916,-999.0,74.3338,-136.7313,1039.0,-999.00,-23.16,yes,no,yes,300234061827060,AWS,BAS,unknown,North
2014-03-22T22:59:31Z,1395529171,2014,22,59,81.958,-999.0,74.3326,-136.7291,1040.0,-999.00,-22.97,yes,no,yes,300234061827060,AWS,BAS,unknown,North
2014-03-22T23:58:33Z,1395532714,2014,23,59,81.999,-999.0,74.3312,-136.7273,1040.0,-999.00,-22.59,yes,no,yes,300234061827060,AWS,BAS,unknown,North
2014-03-23T00:59:02Z,1395536342,2014,0,59,82.041,-999.0,74.3297,-136.7256,1041.0,-999.00,-22.98,yes,no,yes,300234061827060,AWS,BAS,unknown,North
2014-03-23T01:59:31Z,1395539971,2014,2,0,82.083,-999.0,74.3284,-136.7248,1041.0,-999.00,-23.16,yes,no,yes,300234061827060,AWS,BAS,unknown,North
2014-03-23T02:58:33Z,1395543514,2014,2,59,82.124,-999.0,74.3272,-136.725,1041.0,-999.00,-24.59,yes,no,yes,300234061827060,AWS,BAS,unknown,North
2014-03-23T04:00:28Z,1395547229,2014,4,0,82.167,-999.0,74.3262,-136.7256,1041.0,-999.00,-26.4,yes,no,yes,300234061827060,AWS,BAS,unknown,North
2014-03-23T04:59:31Z,1395550771,2014,4,59,82.208,-999.0,74.3257,-136.7253,1041.0,-999.00,-26.67,yes,no,yes,300234061827060,AWS,BAS,unknown,North
2014-03-23T05:58:33Z,1395554314,2014,5,59,82.249,-999.0,74.3253,-136.7251,1041.0,-999.00,-27.23,yes,no,yes,300234061827060,AWS,BAS,unknown,North
2014-03-23T06:59:02Z,1395557942,2014,6,59,82.291,-999.0,74.3252,-136.7232,1041.0,-999.00,-27.04,yes,no,yes,300234061827060,AWS,BAS,unknown,North
2014-03-23T07:59:31Z,1395561571,2014,7,59,82.333,-999.0,74.3253,-136.7201,1041.0,-999.00,-27.41,yes,no,yes,300234061827060,AWS,BAS,unknown,North
2014-03-23T08:58:33Z,1395565114,2014,8,59,82.374,-999.0,74.3256,-136.7156,1041.0,-999.00,-26.65,yes,no,yes,300234061827060,AWS,BAS,unknown,North
2014-03-23T10:00:28Z,1395568829,2014,10,0,82.417,-999.0,74.326,-136.7099,1040.0,-999.00,-26.36,yes,no,yes,300234061827060,AWS,BAS,unknown,North
2014-03-23T10:59:31Z,1395572371,2014,10,59,82.458,-999.0,74.3265,-136.7036,1040.0,-999.00,-25.89,yes,no,yes,300234061827060,AWS,BAS,unknown,North
2014-03-23T12:00:00Z,1395576000,2014,12,0,82.5,-999.0,74.327,-136.6974,1040.0,-999.00,-25.51,yes,no,yes,300234061827060,AWS,BAS,unknown,North
2014-03-23T12:59:02Z,1395579542,2014,12,59,82.541,-999.0,74.3274,-136.6911,1039.0,-999.00,-25.12,yes,no,yes,300234061827060,AWS,BAS,unknown,North
2014-03-23T13:59:31Z,1395583171,2014,13,59,82.583,-999.0,74.328,-136.6849,1039.0,-999.00,-24.55,yes,no,yes,300234061827060,AWS,BAS,unknown,North
2014-03-23T14:58:33Z,1395586714,2014,14,59,82.624,-999.0,74.3286,-136.6788,1038.0,-999.00,-22.36,yes,no,yes,300234061827060,AWS,BAS,unknown,North
2014-03-23T16:00:28Z,1395590429,2014,16,0,82.667,-999.0,74.3296,-136.6734,1037.0,-999.00,-20.94,yes,no,yes,300234061827060,AWS,BAS,unknown,North
2014-03-23T16:59:31Z,1395593971,2014,16,59,82.708,-999.0,74.3308,-136.6663,1037.0,-999.00,-19.71,yes,no,yes,300234061827060,AWS,BAS,unknown,North
2014-03-23T17:58:33Z,1395597514,2014,17,59,82.749,-999.0,74.3321,-136.6583,1036.0,-999.00,-18.57,yes,no,yes,300234061827060,AWS,BAS,unknown,North
2014-03-23T18:59:02Z,1395601142,2014,18,59,82.791,-999.0,74.3338,-136.6494,1035.0,-999.00,-18.49,yes,no,yes,300234061827060,AWS,BAS,unknown,North
2014-03-23T19:59:31Z,1395604771,2014,20,0,82.833,-999.0,74.3355,-136.6387,1034.0,-999.00,-17.93,yes,no,yes,300234061827060,AWS,BAS,unknown,North
2014-03-23T20:58:33Z,1395608314,2014,20,59,82.874,-999.0,74.3373,-136.626,1033.0,-999.00,-17.74,yes,no,yes,300234061827060,AWS,BAS,unknown,North
2014-03-23T21:59:02Z,1395611942,2014,21,59,82.916,-999.0,74.3393,-136.6126,1033.0,-999.00,-16.88,yes,no,yes,300234061827060,AWS,BAS,unknown,North
2014-03-23T22:59:31Z,1395615571,2014,22,59,82.958,-999.0,74.3408,-136.5966,1031.0,-999.00,-16.61,yes,no,yes,300234061827060,AWS,BAS,unknown,North
2014-03-23T23:58:33Z,1395619114,2014,23,59,82.999,-999.0,74.342,-136.582,1030.0,-999.00,-15.95,yes,no,yes,300234061827060,AWS,BAS,unknown,North
2014-03-24T00:59:02Z,1395622742,2014,0,59,83.041,-999.0,74.3431,-136.5682,1029.0,-999.00,-15.76,yes,no,yes,300234061827060,AWS,BAS,unknown,North
2014-03-24T01:59:31Z,1395626371,2014,2,0,83.083,-999.0,74.3436,-136.5554,1028.0,-999.00,-15.57,yes,no,yes,300234061827060,AWS,BAS,unknown,North
2014-03-24T02:58:33Z,1395629914,2014,2,59,83.124,-999.0,74.3436,-136.544,1027.0,-999.00,-15.09,yes,no,yes,300234061827060,AWS,BAS,unknown,North
2014-03-24T04:00:28Z,1395633629,2014,4,0,83.167,-999.0,74.3428,-136.534,1026.0,-999.00,-14.81,yes,no,yes,300234061827060,AWS,BAS,unknown,North
2014-03-24T04:59:31Z,1395637171,2014,4,59,83.208,-999.0,74.342,-136.5264,1026.0,-999.00,-14.53,yes,no,yes,300234061827060,AWS,BAS,unknown,North
2014-03-24T05:58:33Z,1395640714,2014,5,59,83.249,-999.0,74.3407,-136.5214,1026.0,-999.00,-15.1,yes,no,yes,300234061827060,AWS,BAS,unknown,North
2014-03-24T07:00:28Z,1395644429,2014,7,0,83.292,-999.0,74.3391,-136.518,1026.0,-999.00,-17.09,yes,no,yes,300234061827060,AWS,BAS,unknown,North
2014-03-24T07:59:31Z,1395647971,2014,7,59,83.333,-999.0,74.3374,-136.516,1026.0,-999.00,-18.8,yes,no,yes,300234061827060,AWS,BAS,unknown,North
2014-03-24T08:58:33Z,1395651514,2014,8,59,83.374,-999.0,74.3351,-136.5149,1027.0,-999.00,-19.56,yes,no,yes,300234061827060,AWS,BAS,unknown,North
2014-03-24T10:00:28Z,1395655229,2014,10,0,83.417,-999.0,74.3325,-136.5146,1028.0,-999.00,-20.78,yes,no,yes,300234061827060,AWS,BAS,unknown,North
2014-03-24T10:59:31Z,1395658771,2014,10,59,83.458,-999.0,74.3294,-136.5158,1029.0,-999.00,-21.64,yes,no,yes,300234061827060,AWS,BAS,unknown,North
2014-03-24T12:00:00Z,1395662400,2014,12,0,83.5,-999.0,74.3265,-136.5167,1030.0,-999.00,-22.5,yes,no,yes,300234061827060,AWS,BAS,unknown,North
2014-03-24T12:59:02Z,1395665942,2014,12,59,83.541,-999.0,74.3234,-136.5182,1030.0,-999.00,-23.16,yes,no,yes,300234061827060,AWS,BAS,unknown,North
2014-03-24T13:59:31Z,1395669571,2014,13,59,83.583,-999.0,74.3201,-136.52,1031.0,-999.00,-23.26,yes,no,yes,300234061827060,AWS,BAS,unknown,North
2014-03-24T14:58:33Z,1395673114,2014,14,59,83.624,-999.0,74.3163,-136.5224,1032.0,-999.00,-23.44,yes,no,yes,300234061827060,AWS,BAS,unknown,North
2014-03-24T16:00:28Z,1395676829,2014,16,0,83.667,-999.0,74.3128,-136.527,1033.0,-999.00,-23.81,yes,no,yes,300234061827060,AWS,BAS,unknown,North
2014-03-24T16:59:31Z,1395680371,2014,16,59,83.708,-999.0,74.3103,-136.5331,1034.0,-999.00,-23.82,yes,no,yes,300234061827060,AWS,BAS,unknown,North
2014-03-24T17:58:33Z,1395683914,2014,17,59,83.749,-999.0,74.3081,-136.538,1034.0,-999.00,-24.3,yes,no,yes,300234061827060,AWS,BAS,unknown,North
2014-03-24T18:59:02Z,1395687542,2014,18,59,83.791,-999.0,74.3065,-136.5414,1035.0,-999.00,-23.35,yes,no,yes,300234061827060,AWS,BAS,unknown,North
2014-03-24T19:59:31Z,1395691171,2014,20,0,83.833,-999.0,74.305,-136.5429,1036.0,-999.00,-23.26,yes,no,yes,300234061827060,AWS,BAS,unknown,North
2014-03-24T20:58:33Z,1395694714,2014,20,59,83.874,-999.0,74.3038,-136.5426,1036.0,-999.00,-22.88,yes,no,yes,300234061827060,AWS,BAS,unknown,North
2014-03-24T21:59:02Z,1395698342,2014,21,59,83.916,-999.0,74.3032,-136.5412,1036.0,-999.00,-22.32,yes,no,yes,300234061827060,AWS,BAS,unknown,North